Location: Northam
(31.6525°S, 116.6655°E)
Time: 02:40:38
(UTC+08:00)

STARLINK-1855 - Pass Details

Date: 17 January 2021
Orbit: 545 x 549 km, 53.1° (Epoch: 28 February)

Event Time Altitude Azimuth Distance (km) Brightness Sun altitude
Rises 21:32:39 0° 231° (SW) 2,731 8.6 -23.6°
Reaches altitude 10° 21:34:58 10° 237° (WSW) 1,830 7.3 -23.9°
Enters shadow 21:38:35 41° 295° (WNW) 798 4.5 -24.5°
